Torna al catalogo

UNKNOWN

AttivoSSO
NORAD 60468·DEBRIS·🇺🇸 United States
Questo nome del satellite non è ancora stato confermato da fonti ufficiali.

Lanciato Aug 16, 2024 da Vandenberg Space Force Base

Loading…

Prossimi Passaggi (prossime 24 ore)

TLE

AggiornatoSource: Space-Track

Epoca: Sep 14, 2026, 11:31 UTC

1 60468U 24149A   26257.48052518  .00006636  00000-0  20309-3 0  9997
2 60468  97.3670 337.1845 0001455 252.3451 107.7633 15.34169543115742

Traccia UNKNOWN in tempo reale con AllMySat

Download on the App Store